Probability
31 30 27 25 26 28 27 25 25 25 24 22 21 22 20 17 15 15 17 18 17 16 13 10 8 8 7 5 4 5 7 7 6 4 4 4 4 4 4 4 5 5 5
36 34 32 29 29 29 28 26 26 25 23 22 22 23 20 17 16 16 17 17 15 15 14 13 11 10 9 7 5 7 9 9 8 6 5 6 6 5 5 4 4 4 4
40 38 36 34 32 31 30 29 28 26 24 24 25 24 20 18 18 19 18 16 15 15 16 16 15 14 13 10 8 9 10 9 9 8 8 8 8 6 5 4 2 2 2
40 39 39 39 36 34 33 32 31 29 27 27 27 24 20 19 20 20 19 17 16 17 18 18 17 15 13 11 10 11 10 9 9 9 9 9 9 7 5 4 2 1 1
39 40 43 43 40 37 36 36 34 32 31 29 26 23 20 18 18 18 17 16 18 19 19 18 16 13 11 10 9 9 9 9 9 8 7 8 8 7 6 4 2 1 1
38 39 43 44 42 41 40 38 37 37 35 31 27 24 21 18 15 14 13 15 19 21 21 19 14 10 9 8 7 6 6 6 7 7 7 7 8 8 8 7 5 3 2
41 41 43 44 44 43 42 40 41 42 40 35 29 27 25 21 15 10 9 13 18 21 23 22 16 12 11 10 7 5 3 3 4 6 7 8 9 11 12 10 7 5 4
45 45 45 45 46 46 46 46 47 46 44 39 33 31 29 25 16 7 5 10 16 22 24 24 20 17 13 11 11 9 8 5 3 3 5 7 8 11 12 10 8 6 5
45 46 48 48 48 50 51 52 52 50 46 43 39 36 33 28 17 6 4 10 18 23 24 21 19 17 12 10 12 15 15 12 7 3 3 4 5 6 7 7 8 8 8
46 48 51 52 53 54 56 57 55 52 48 46 44 41 37 32 21 8 5 13 22 26 24 19 14 11 9 7 11 16 17 16 12 8 6 5 5 5 5 7 9 11 12
52 53 54 55 55 56 59 60 58 54 50 48 47 45 41 35 24 10 5 12 21 25 25 21 14 8 5 4 9 14 14 13 13 12 10 9 9 8 8 9 12 13 14
56 55 55 53 50 53 59 61 59 56 51 49 48 47 43 36 25 13 5 6 13 20 23 20 15 8 3 1 4 8 8 9 12 13 11 11 11 11 10 11 12 14 14
54 52 49 47 47 51 58 59 58 56 51 47 47 46 42 36 27 16 7 3 5 12 15 14 10 6 2 1 2 2 3 7 11 12 12 11 11 11 10 10 11 12 13
49 47 45 45 46 51 55 55 54 53 49 45 45 45 42 36 27 17 9 5 4 7 9 9 8 5 4 4 4 3 4 7 10 11 11 10 10 10 10 10 11 11 11
42 41 42 43 45 46 46 43 43 43 39 35 35 37 36 30 20 12 8 7 6 7 9 12 12 10 9 9 9 8 7 8 9 9 9 9 9 9 10 11 12 12 12
40 39 37 38 40 39 36 30 27 25 21 16 16 20 22 17 9 4 4 4 4 5 8 13 15 14 14 15 14 12 10 9 9 8 8 9 10 10 10 11 12 12 12
41 37 34 33 33 33 32 28 22 17 12 7 5 6 7 5 2 0 1 1 2 3 7 11 13 13 16 17 16 14 13 11 10 8 8 9 10 10 9 9 10 9 8
36 32 30 29 29 30 32 30 26 22 19 14 7 2 1 0 0 0 0 1 3 5 8 10 11 12 15 16 14 14 14 14 13 10 9 10 9 7 6 7 7 6 5
29 28 26 27 28 30 30 29 28 27 26 23 16 6 1 0 0 0 0 2 4 6 8 10 10 11 13 14 13 13 15 15 15 13 11 10 8 5 4 4 4 4 4
27 24 23 25 26 28 28 27 27 27 27 25 20 11 3 1 1 1 0 1 3 4 5 7 8 9 10 11 13 13 14 15 15 13 11 9 7 5 4 3 3 3 3
24 21 19 20 22 24 25 26 25 25 25 23 19 12 5 1 2 2 1 1 2 3 4 6 6 6 6 8 10 10 11 12 12 10 9 7 5 4 4 3 3 3 3
19 17 16 18 20 20 20 21 21 21 22 21 18 11 4 2 2 3 3 3 3 4 5 6 6 5 5 6 8 8 8 10 10 8 7 5 4 3 2 1 2 2 2
15 14 14 18 20 19 17 17 17 17 18 20 18 12 5 3 3 3 3 3 4 5 6 6 5 4 4 7 9 9 9 9 9 7 5 4 3 2 1 1 1 1 1
11 11 11 15 18 18 18 18 17 17 18 18 15 12 9 6 4 3 3 3 3 4 5 4 3 2 3 6 8 8 6 6 7 7 5 4 3 2 2 2 1 1 1
11 10 10 12 14 16 18 20 20 20 20 17 13 11 10 9 7 5 4 4 4 4 4 4 2 2 3 5 6 5 3 2 3 4 4 3 3 3 3 3 2 2 2
12 11 10 11 13 15 17 20 22 21 20 17 13 10 9 10 10 8 6 4 5 5 5 4 3 3 4 5 5 3 1 0 1 2 2 3 3 3 3 3 2 1 1
Wind_Speed
7 6 5 5 5 4 3 3 3 2 2 2 2 2 2 2 2 1 2 1 1 1 1 1 1 1 0 0 1 1 1 2 3 2 2 3 3 3 3 3 4 3 4
7 6 6 5 5 5 4 4 3 3 3 3 2 2 2 2 2 2 2 2 1 1 1 0 1 1 1 0 0 0 1 2 3 3 3 3 3 3 3 2 3 3 3
7 7 6 5 5 4 4 4 4 4 3 3 3 2 2 2 2 2 2 1 1 2 1 1 1 1 1 1 1 1 1 1 3 3 3 2 2 2 2 1 2 2 3
6 6 6 6 5 5 4 4 4 4 4 3 3 2 2 2 2 2 2 1 1 1 1 1 1 2 2 2 2 2 1 2 2 3 3 3 2 2 2 1 1 1 2
5 5 5 5 5 5 5 4 4 4 5 4 3 3 3 3 2 2 2 3 2 2 2 1 2 3 3 2 1 1 2 2 3 3 3 2 2 2 2 2 2 2 2
4 4 4 5 5 5 5 5 4 4 4 3 3 3 3 3 2 2 2 2 2 2 2 2 3 3 4 4 4 3 2 2 2 2 3 3 3 2 2 2 1 1 1
5 5 5 5 5 5 6 5 5 4 4 4 4 3 3 2 3 3 2 2 2 2 2 2 2 3 4 4 4 3 2 2 2 2 3 3 3 3 3 2 2 2 1
5 5 5 5 5 5 5 5 5 4 4 4 4 4 3 3 4 3 3 3 2 2 2 3 3 2 2 3 3 3 3 1 2 2 2 2 2 2 2 3 3 2 2
5 5 5 5 5 5 5 5 4 4 4 4 4 4 4 3 5 5 4 3 3 3 2 2 3 3 3 3 3 3 3 2 2 3 4 3 3 3 2 1 1 2 2
4 4 5 5 5 6 6 5 5 4 5 5 4 4 4 4 5 6 5 4 3 3 2 2 2 3 4 3 3 4 4 3 3 3 2 2 3 4 5 3 2 2 2
2 2 3 4 4 5 5 4 4 5 5 5 4 4 4 5 6 6 6 3 3 3 3 3 2 5 4 4 3 3 4 3 3 3 3 3 3 3 3 3 3 2 2
2 3 4 4 5 5 4 4 5 5 5 5 5 5 4 5 6 6 7 6 3 2 2 2 3 5 5 5 4 4 4 3 2 3 3 3 3 3 3 3 3 3 2
3 3 4 5 4 4 5 5 5 5 5 5 5 5 4 4 5 7 8 7 5 2 1 2 4 4 5 4 5 5 4 3 3 3 3 3 3 3 3 3 3 3 2
3 3 3 4 5 4 4 4 5 5 5 4 4 4 3 3 4 4 4 4 5 4 2 2 4 5 4 3 4 4 4 4 4 3 3 2 2 2 3 3 3 3 2
2 2 3 4 4 3 4 3 4 4 4 5 4 4 4 4 5 7 6 5 4 4 3 3 3 4 4 4 4 4 4 4 4 3 3 2 3 3 3 2 2 3 3
3 3 3 3 3 4 3 2 0 3 5 7 5 3 3 4 7 8 7 6 6 6 5 5 5 5 6 5 5 5 5 4 4 3 3 3 3 3 3 3 3 3 3
4 3 3 3 3 4 4 4 3 2 2 3 5 5 5 5 6 7 6 6 6 7 5 5 5 5 5 5 4 4 4 4 3 4 4 4 3 3 3 3 3 3 3
4 4 4 3 3 4 4 4 4 4 3 2 3 6 8 8 7 7 7 6 4 5 6 5 5 5 4 4 4 4 4 4 4 4 4 4 4 3 3 3 3 4 4
4 3 3 3 4 4 3 3 4 4 4 3 3 3 6 6 6 6 7 5 5 6 6 5 5 4 3 3 3 3 3 4 4 4 4 4 4 3 3 3 4 4 4
4 4 4 3 4 4 4 4 4 3 3 3 3 4 5 5 4 5 6 5 6 6 5 5 4 3 3 3 3 3 3 3 4 4 4 4 4 4 4 5 4 4 4
3 3 5 4 5 4 3 3 3 3 3 3 3 5 8 6 6 7 6 6 6 5 4 4 3 3 3 3 3 3 4 3 3 3 3 3 4 4 4 4 4 4 3
3 3 3 3 3 3 3 3 4 3 3 3 2 3 8 5 5 5 6 5 5 4 4 3 4 4 3 3 3 3 3 3 3 3 3 3 4 4 4 4 3 3 3
3 3 3 3 3 2 2 3 3 3 3 3 3 3 4 4 4 4 4 4 4 4 3 3 3 3 3 3 3 3 3 3 3 2 3 3 3 4 4 4 5 4 3
3 3 3 3 3 3 2 3 3 3 3 2 2 3 3 3 3 3 3 3 3 3 3 3 3 4 3 2 2 2 2 2 2 3 4 4 4 4 4 4 4 4 4
3 3 3 3 2 2 3 3 3 3 2 2 2 3 3 4 4 4 3 2 3 3 4 3 3 3 4 4 3 2 2 2 2 2 3 4 5 4 4 4 3 4 4
3 3 3 2 2 2 3 3 3 3 3 3 3 3 3 3 3 3 3 2 2 2 3 3 4 4 4 3 3 2 2 3 3 3 3 4 4 3 3 3 4 4 4
Wind_Direction
172 174 163 165 168 166 169 151 138 132 141 144 138 146 149 144 137 145 153 159 161 158 180 171 178 150 98 122 158 160 138 129 137 129 121 128 122 122 134 142 148 141 134
167 167 169 164 167 173 171 163 160 159 164 158 153 158 159 148 159 176 181 173 163 147 134 132 192 167 156 216 174 106 137 147 143 144 138 145 145 145 148 152 144 133 138
167 173 167 166 171 175 164 162 166 164 163 164 167 170 169 168 177 177 179 175 167 163 156 175 197 178 188 201 178 165 186 152 140 148 151 150 152 146 142 153 128 123 138
163 175 167 170 175 175 169 168 171 168 171 173 176 178 190 192 193 187 174 173 158 150 144 141 181 178 182 194 176 169 164 145 142 143 147 155 151 148 153 162 147 158 151
159 168 160 167 170 172 172 173 174 177 182 178 184 189 201 206 208 196 196 180 165 149 135 122 100 101 94 103 138 131 152 157 159 150 155 150 150 164 189 197 184 180 167
165 168 164 169 174 174 173 172 177 181 179 185 193 194 211 217 169 167 184 181 168 162 154 140 137 123 119 121 114 101 121 165 166 158 161 170 174 183 183 194 178 170 189
177 178 176 177 178 177 182 176 181 185 184 190 197 194 198 202 180 170 185 203 178 172 167 165 185 150 145 140 135 133 116 135 165 169 167 180 183 185 182 196 190 196 217
183 180 177 179 179 177 182 183 183 184 191 199 202 194 197 200 183 181 193 205 196 193 177 166 161 162 157 143 165 152 149 149 170 169 157 178 170 178 199 207 203 204 217
192 186 185 187 187 186 191 190 186 190 196 201 197 194 197 188 186 190 194 196 197 204 191 176 175 167 159 160 168 156 152 147 105 111 132 148 159 166 173 175 204 204 232
204 195 190 191 196 198 195 191 191 195 201 202 199 195 196 189 186 189 192 210 200 192 182 171 151 156 160 173 182 175 181 174 151 138 138 167 185 188 189 187 204 220 232
201 193 185 189 199 202 197 194 195 200 204 204 198 196 195 187 179 185 189 215 213 200 195 184 166 163 171 186 195 193 193 181 176 175 183 194 198 190 188 191 198 206 222
191 197 195 195 208 206 192 199 205 206 201 200 200 198 193 186 181 184 188 203 231 220 194 167 153 168 182 192 200 201 191 193 202 204 202 197 199 192 188 186 188 196 203
205 208 205 206 209 201 197 199 202 202 205 206 204 201 195 185 173 176 181 194 205 207 207 172 164 174 177 190 208 208 204 214 215 215 212 200 193 189 178 181 192 204 217
220 222 218 207 208 201 196 200 204 203 206 203 202 202 195 184 168 168 177 186 189 194 199 175 180 192 197 195 193 207 217 225 222 222 209 190 176 181 193 187 194 197 203
216 219 228 226 216 204 205 215 220 210 203 202 209 202 198 201 189 179 179 189 195 182 174 196 204 193 198 202 204 208 213 217 222 225 210 198 196 193 201 196 192 200 209
223 218 230 232 216 210 206 199 182 227 199 197 205 208 201 181 161 158 161 165 174 172 182 203 211 212 210 207 205 207 211 214 216 211 207 202 209 203 198 199 199 208 213
234 230 233 235 225 222 215 203 198 203 207 207 202 194 182 167 165 169 168 159 165 167 198 218 217 218 217 213 208 206 209 207 211 214 213 212 211 212 202 203 208 214 219
238 233 235 236 231 234 229 223 217 207 200 201 200 187 176 172 174 175 162 149 180 198 217 227 229 220 215 216 212 208 207 206 210 216 213 214 214 216 218 213 216 221 223
238 238 233 244 241 239 234 233 230 218 212 200 164 155 163 159 162 173 173 196 208 216 223 227 231 226 219 217 213 211 212 211 212 216 214 216 217 214 221 222 221 229 231
233 232 231 245 250 243 232 235 236 222 212 204 186 165 156 163 177 185 198 214 223 225 225 226 230 229 221 213 208 208 215 213 211 212 216 221 221 222 225 226 228 224 225
249 228 227 238 243 242 236 239 239 230 220 206 198 173 173 189 195 200 206 213 221 225 225 219 217 225 223 222 212 210 215 219 217 216 215 222 225 229 234 232 228 227 226
269 249 239 248 255 252 256 252 245 230 215 213 211 178 182 197 201 206 210 214 221 220 218 217 219 219 214 217 218 215 216 219 220 224 219 220 222 228 234 230 226 225 221
267 270 264 265 265 251 254 256 248 240 229 226 212 185 188 210 213 213 215 217 218 219 215 217 223 223 219 217 216 215 221 225 222 219 229 234 233 229 228 222 220 221 222
260 255 253 253 249 244 246 251 250 246 232 224 211 201 201 207 218 228 228 219 215 220 216 224 230 229 225 222 226 228 225 222 224 223 224 236 241 239 230 222 222 218 215
267 268 266 263 261 256 251 252 256 245 223 210 214 214 219 214 215 220 231 232 223 224 225 226 229 230 231 232 228 226 211 199 216 246 245 242 240 236 233 226 223 223 227
267 272 275 280 279 275 265 252 246 239 226 220 219 216 220 225 219 215 214 225 222 222 229 226 227 223 222 221 210 206 193 189 201 226 249 251 245 235 232 238 231 226 226